OK1HRA-8 Weather Reports


time (UTC)temp
C
wind
direction
speed
KPH
gust
KPH
rain 1hr
cm
rain 24hr
cm
rain mn
cm
humidity
%
barometer
mb
20260906082942 14 337 6.4 9.7 0.00 0.00 0.00 6 1012.4
20260906082919 15 0 9.7 20.9 0.00 0.00 0.00 6 1011.5
20260906082404 15 45 8.0 19.3 0.00 0.00 0.00 6 1013.0
20260906081849 14 0 11.3 17.7 0.00 0.00 0.00 6 1012.5
20260906081328 14 0 9.7 12.9 0.00 0.00 0.00 6 1012.9
20260906081310 14 0 9.7 19.3 0.00 0.00 0.00 6 1012.6
20260906080749 13 337 14.5 22.5 0.00 0.00 0.00 6 1014.0
20260906080233 13 337 11.3 20.9 0.00 0.00 0.00 7 1013.9
20260906075712 13 292 8.0 11.3 0.00 0.00 0.00 6 1013.0
20260906075655 13 270 14.5 22.5 0.00 0.00 0.00 6 1013.2
20260906075134 14 270 14.5 24.1 0.00 0.00 0.00 6 1014.4
20260906074619 15 0 9.7 17.7 0.00 0.00 0.00 7 1014.4
20260906074104 14 337 11.3 24.1 0.00 0.00 0.00 7 1013.8
20260906073543 13 45 8.0 12.9 0.00 0.00 0.00 7 1015.8
20260906073527 13 0 12.9 24.1 0.00 0.00 0.00 7 1015.7
20260906073006 13 0 14.5 24.1 0.00 0.00 0.00 7 1014.8
20260906072451 13 315 11.3 27.4 0.00 0.00 0.00 7 1014.1
20260906071936 13 315 11.3 20.9 0.00 0.00 0.00 7 1013.9
20260906071415 13 337 8.0 9.7 0.00 0.00 0.00 7 1015.2
20260906071352 13 0 12.9 20.9 0.00 0.00 0.00 7 1015.0
20260906070837 13 315 12.9 19.3 0.00 0.00 0.00 7 1014.0
20260906070322 13 337 12.9 22.5 0.00 0.00 0.00 7 1014.0
20260906065801 13 337 8.0 11.3 0.00 0.00 0.00 7 1015.2
20260906065744 13 0 14.5 19.3 0.00 0.00 0.00 7 1015.1
20260906065223 13 315 9.7 19.3 0.00 0.00 0.00 7 1013.8
20260906064708 13 315 9.7 19.3 0.00 0.00 0.00 7 1015.3
20260906064153 12 315 11.3 20.9 0.00 0.00 0.00 7 1014.6
20260906063632 12 0 12.9 16.1 0.00 0.00 0.00 7 1014.2
20260906063608 12 315 16.1 25.7 0.00 0.00 0.00 7 1013.7
20260906063053 12 0 14.5 24.1 0.00 0.00 0.00 7 1014.8
20260906062538 12 315 11.3 19.3 0.00 0.00 0.00 8 1013.7
20260906062017 12 270 11.3 14.5 0.00 0.00 0.00 7 1013.1
20260906061952 12 337 11.3 17.7 0.00 0.00 0.00 7 1012.6
20260906061437 12 270 8.0 14.5 0.00 0.00 0.00 7 1014.2
20260906060922 12 270 8.0 14.5 0.00 0.00 0.00 7 1014.3
20260906060401 12 292 6.4 8.0 0.00 0.00 0.00 7 1014.2
20260906060345 12 292 9.7 16.1 0.00 0.00 0.00 7 1014.1
20260906055830 12 270 9.7 16.1 0.00 0.00 0.00 7 1014.4
20260906055309 11 270 11.3 19.3 0.00 0.00 0.00 7 1014.1
20260906054754 11 292 11.3 19.3 0.00 0.00 0.00 7 1014.5
20260906054233 10 270 8.0 11.3 0.00 0.00 0.00 8 1015.7
20260906054217 10 270 9.7 14.5 0.00 0.00 0.00 8 1015.6
20260906053656 10 270 11.3 19.3 0.00 0.00 0.00 8 1015.5
20260906053141 10 270 11.3 16.1 0.00 0.00 0.00 8 1014.3
20260906052626 10 247 11.3 14.5 0.00 0.00 0.00 8 1014.8
20260906052105 10 247 6.4 9.7 0.00 0.00 0.00 8 1014.9
20260906052041 10 225 9.7 14.5 0.00 0.00 0.00 8 1014.6
20260906051526 10 247 8.0 14.5 0.00 0.00 0.00 8 1015.4
20260906051011 10 270 9.7 16.1 0.00 0.00 0.00 8 1014.9
20260906050450 10 270 9.7 12.9 0.00 0.00 0.00 8 1014.9
20260906050433 10 247 9.7 14.5 0.00 0.00 0.00 8 1014.9
20260906045912 10 247 11.3 17.7 0.00 0.00 0.00 8 1015.0
20260906045357 10 247 11.3 16.1 0.00 0.00 0.00 8 1014.6
20260906044842 10 247 11.3 16.1 0.00 0.00 0.00 8 1015.2
20260906044321 10 247 11.3 12.9 0.00 0.00 0.00 8 1014.7
20260906044257 10 247 11.3 16.1 0.00 0.00 0.00 8 1014.8
20260906043742 10 247 14.5 17.7 0.00 0.00 0.00 8 1014.2
20260906043227 10 247 12.9 17.7 0.00 0.00 0.00 8 1013.8
20260906042706 10 247 14.5 17.7 0.00 0.00 0.00 8 1013.1
20260906042642 10 225 14.5 20.9 0.00 0.00 0.00 8 1013.3
20260906042127 10 247 11.3 16.1 0.00 0.00 0.00 8 1014.4
20260906041612 10 247 9.7 14.5 0.00 0.00 0.00 8 1013.9
20260906041050 10 270 9.7 12.9 0.00 0.00 0.00 8 1013.8
20260906041034 10 270 12.9 17.7 0.00 0.00 0.00 8 1014.0
20260906040519 11 270 9.7 14.5 0.00 0.00 0.00 8 1013.4
20260906035958 10 -1 11.3 14.5 0.00 0.00 0.00 8 1014.6
20260906035443 10 -1 9.7 16.1 0.00 0.00 0.00 8 1014.1
20260906034922 11 270 11.3 14.5 0.00 0.00 0.00 8 1013.5
20260906034904 11 270 11.3 16.1 0.00 0.00 0.00 8 1013.7
20260906034343 10 -1 12.9 17.7 0.00 0.00 0.00 8 1014.2
20260906033828 11 -1 14.5 17.7 0.00 0.00 0.00 8 1012.8
20260906033307 11 -1 8.0 11.3 0.00 0.00 0.00 8 1012.9
20260906033250 11 -1 8.0 12.9 0.00 0.00 0.00 8 1012.5
20260906032729 11 -1 4.8 9.7 0.00 0.00 0.00 7 1012.3
20260906032214 12 -1 8.0 19.3 0.00 0.00 0.00 7 1011.6
20260906031659 12 -1 11.3 14.5 0.00 0.00 0.00 7 1012.0
20260906031138 12 270 11.3 14.5 0.00 0.00 0.00 7 1011.5
20260906031122 12 315 12.9 20.9 0.00 0.00 0.00 7 1011.8
20260906030601 12 315 11.3 22.5 0.00 0.00 0.00 7 1012.0
20260906030046 12 292 12.9 22.5 0.00 0.00 0.00 7 1012.2
20260906025531 12 270 14.5 19.3 0.00 0.00 0.00 7 1012.6
20260906025010 12 315 11.3 14.5 0.00 0.00 0.00 7 1012.3
20260906024954 12 315 14.5 20.9 0.00 0.00 0.00 7 1012.1
20260906024433 12 292 16.1 22.5 0.00 0.00 0.00 7 1012.5
20260906023918 12 270 16.1 22.5 0.00 0.00 0.00 7 1012.5
20260906023403 12 315 14.5 19.3 0.00 0.00 0.00 7 1012.4
20260906022842 12 270 4.8 6.4 0.00 0.00 0.00 7 1012.4
20260906022826 12 315 12.9 17.7 0.00 0.00 0.00 7 1012.0
20260906022307 12 292 14.5 22.5 0.00 0.00 0.00 7 1012.6
20260906021750 12 292 16.1 22.5 0.00 0.00 0.00 7 1012.6
20260906021235 12 292 16.1 20.9 0.00 0.00 0.00 7 1012.4
20260906020714 12 292 17.7 22.5 0.00 0.00 0.00 7 1012.1
20260906020658 12 315 17.7 27.4 0.00 0.00 0.00 7 1012.0
20260906020137 12 315 16.1 24.1 0.00 0.00 0.00 7 1012.1
20260906015622 12 315 17.7 27.4 0.00 0.00 0.00 7 1011.7
20260906015107 12 315 16.1 20.9 0.00 0.00 0.00 7 1012.2
20260906014546 12 315 11.3 16.1 0.00 0.00 0.00 7 1012.1
20260906014530 12 315 12.9 19.3 0.00 0.00 0.00 7 1012.2
20260906014009 12 315 14.5 16.1 0.00 0.00 0.00 7 1012.1
20260906013454 12 315 11.3 16.1 0.00 0.00 0.00 7 1012.0
20260906012939 12 315 14.5 19.3 0.00 0.00 0.00 7 1012.0
20260906012418 12 337 11.3 14.5 0.00 0.00 0.00 7 1012.0
20260906012400 12 270 12.9 19.3 0.00 0.00 0.00 7 1012.0
20260906011845 13 315 14.5 24.1 0.00 0.00 0.00 7 1011.6
20260906011324 13 315 16.1 24.1 0.00 0.00 0.00 7 1011.4
20260906010803 13 337 19.3 25.7 0.00 0.00 0.00 7 1011.5
20260906010746 13 315 17.7 27.4 0.00 0.00 0.00 7 1011.5
20260906010231 13 337 12.9 22.5 0.00 0.00 0.00 7 1011.6
20260906005710 13 315 14.5 20.9 0.00 0.00 0.00 7 1011.4
20260906005155 13 315 16.1 22.5 0.00 0.00 0.00 7 1011.5
20260906004634 13 315 9.7 12.9 0.00 0.00 0.00 7 1011.6
20260906004618 13 315 11.3 19.3 0.00 0.00 0.00 7 1011.3
20260906004057 13 315 14.5 20.9 0.00 0.00 0.00 7 1011.4
20260906003542 13 337 14.5 22.5 0.00 0.00 0.00 7 1011.2
20260906003027 13 315 16.1 22.5 0.00 0.00 0.00 7 1011.1
20260906002506 13 315 17.7 22.5 0.00 0.00 0.00 7 1011.3
20260906002450 13 292 17.7 27.4 0.00 0.00 0.00 7 1011.1
20260906001935 13 315 14.5 19.3 0.00 0.00 0.00 7 1010.9
20260906001414 13 337 9.7 16.1 0.00 0.00 0.00 7 1010.6
20260906000859 13 315 8.0 14.5 0.00 0.00 0.00 6 1010.0
20260906000340 13 270 6.4 9.7 0.00 0.00 0.00 6 1010.4
20260906000322 13 292 8.0 14.5 0.00 0.00 0.00 6 1010.7
20260905235801 13 270 8.0 16.1 0.00 0.00 0.18 6 1011.1
20260905235246 13 270 4.8 8.0 0.00 0.00 0.18 6 1010.3
20260905234731 13 270 4.8 9.7 0.00 0.00 0.18 6 1010.3
20260905234210 13 270 0.0 0.0 0.00 0.00 0.18 6 1010.9
20260905234155 13 270 4.8 6.4 0.00 0.00 0.18 6 1010.9
20260905233640 13 247 0.0 0.0 0.00 0.00 0.18 6 1010.2
20260905233119 13 270 4.8 8.0 0.00 0.00 0.18 6 1010.9
20260905232604 13 270 6.4 12.9 0.00 0.00 0.18 6 1010.4
20260905232043 14 270 6.4 8.0 0.00 0.00 0.18 6 1010.4
20260905232027 14 270 8.0 16.1 0.00 0.00 0.18 6 1010.3
20260905231506 14 270 8.0 12.9 0.00 0.00 0.18 6 1010.4
20260905230951 14 270 6.4 11.3 0.00 0.00 0.18 6 1010.2
20260905230436 14 270 8.0 14.5 0.00 0.00 0.18 6 1010.1
20260905225914 14 270 4.8 4.8 0.00 0.00 0.18 6 1010.4
20260905225859 14 270 6.4 12.9 0.00 0.00 0.18 6 1010.4
20260905225338 14 270 6.4 11.3 0.00 0.00 0.18 6 1010.8
20260905224823 15 315 9.7 16.1 0.00 0.00 0.18 6 1009.4
20260905224308 15 315 11.3 16.1 0.00 0.00 0.18 6 1009.5
20260905223747 15 270 8.0 12.9 0.00 0.00 0.18 6 1009.6
20260905223731 15 270 11.3 22.5 0.00 0.00 0.18 6 1009.7
20260905223210 15 270 12.9 20.9 0.00 0.00 0.18 6 1009.5
20260905222655 15 270 14.5 25.7 0.00 0.00 0.18 6 1009.4
20260905222140 15 270 16.1 24.1 0.00 0.00 0.18 5 1009.2
20260905221619 15 270 12.9 16.1 0.00 0.00 0.18 5 1009.1
20260905221603 15 270 17.7 25.7 0.00 0.00 0.18 5 1009.3
20260905221042 15 270 14.5 24.1 0.00 0.00 0.18 5 1009.8
20260905220527 15 270 16.1 22.5 0.00 0.00 0.18 5 1009.5
20260905220012 15 292 14.5 24.1 0.00 0.00 0.18 5 1009.7
20260905215451 15 292 14.5 19.3 0.00 0.00 0.18 5 1009.0
20260905215427 15 270 16.1 24.1 0.00 0.00 0.18 5 1009.0
20260905214912 15 270 14.5 22.5 0.00 0.00 0.18 5 1009.0
20260905214357 15 270 12.9 20.9 0.00 0.00 0.18 5 1009.0
20260905213836 15 270 9.7 12.9 0.00 0.00 0.18 5 1009.3
20260905213819 15 292 9.7 16.1 0.00 0.00 0.18 5 1008.9
20260905213258 15 270 12.9 25.7 0.00 0.00 0.18 5 1008.8
20260905212743 15 315 14.5 24.1 0.00 0.00 0.18 5 1008.4
20260905212228 15 270 16.1 22.5 0.00 0.00 0.18 5 1008.4
20260905211707 15 270 11.3 14.5 0.00 0.00 0.18 5 1008.6
20260905211651 15 270 16.1 25.7 0.00 0.00 0.18 5 1008.8
20260905211130 15 270 20.9 30.6 0.00 0.00 0.18 5 1008.6
20260905210615 15 270 19.3 32.2 0.00 0.00 0.18 5 1008.4
20260905210100 15 270 16.1 27.4 0.00 0.00 0.18 5 1008.1
20260905205539 15 270 17.7 22.5 0.00 0.00 0.18 5 1008.2
20260905205524 15 270 20.9 30.6 0.00 0.00 0.18 5 1008.0
20260905205003 15 270 17.7 24.1 0.00 0.00 0.18 5 1008.0
20260905204448 15 270 19.3 29.0 0.00 0.00 0.18 5 1008.1
20260905203933 15 270 20.9 33.8 0.00 0.00 0.18 5 1007.9
20260905203412 15 270 14.5 19.3 0.00 0.00 0.18 5 1008.4
20260905203356 15 -1 16.1 24.1 0.00 0.00 0.18 5 1008.3
20260905202835 15 -1 19.3 29.0 0.00 0.00 0.18 5 1008.3
20260905202320 15 270 16.1 24.1 0.00 0.00 0.18 5 1008.0
20260905201805 15 270 14.5 22.5 0.00 0.00 0.18 5 1008.1
20260905201244 15 270 8.0 11.3 0.00 0.00 0.18 5 1007.9
20260905201227 15 270 14.5 24.1 0.00 0.00 0.18 5 1007.7
20260905200706 15 270 12.9 20.9 0.00 0.00 0.18 5 1007.9
20260905200151 16 -1 12.9 20.9 0.00 0.00 0.18 5 1007.7
20260905195636 16 270 14.5 22.5 0.00 0.00 0.18 5 1007.5
20260905195115 16 270 12.9 16.1 0.00 0.00 0.18 5 1007.2
20260905195059 16 270 19.3 29.0 0.00 0.00 0.18 5 1007.0
20260905194538 16 270 19.3 35.4 0.00 0.00 0.18 5 1007.3
20260905194023 16 -1 19.3 27.4 0.00 0.00 0.18 5 1006.9
20260905193508 16 315 16.1 25.7 0.00 0.00 0.18 5 1006.4
20260905192947 16 270 16.1 20.9 0.00 0.00 0.18 5 1006.2
20260905192932 16 270 19.3 32.2 0.00 0.00 0.18 5 1005.9
20260905192411 16 -1 17.7 32.2 0.00 0.00 0.18 5 1006.5
20260905191855 16 -1 17.7 30.6 0.00 0.00 0.18 5 1006.6
20260905191340 16 -1 17.7 30.6 0.00 0.00 0.18 5 1006.8
20260905190819 16 270 12.9 16.1 0.00 0.00 0.18 5 1006.9
20260905190802 16 -1 17.7 29.0 0.00 0.00 0.18 5 1006.9
20260905190247 16 -1 16.1 27.4 0.00 0.00 0.18 5 1006.8
20260905185726 17 -1 19.3 27.4 0.00 0.00 0.18 5 1006.9
20260905185205 17 315 16.1 19.3 0.00 0.00 0.18 5 1006.4
20260905185148 17 -1 16.1 27.4 0.00 0.00 0.18 5 1006.6
20260905184633 17 270 19.3 32.2 0.00 0.00 0.18 5 1006.7
20260905184112 17 292 22.5 35.4 0.00 0.00 0.18 5 1006.0
20260905183557 17 315 24.1 37.0 0.00 0.00 0.18 5 1006.2
20260905183035 17 270 16.1 20.9 0.00 0.00 0.18 5 1005.5
20260905183019 17 292 24.1 40.2 0.00 0.00 0.18 5 1005.3
20260905182458 17 292 27.4 40.2 0.00 0.00 0.18 5 1005.0
20260905181943 17 292 29.0 40.2 0.00 0.00 0.18 5 1005.7
20260905181428 17 270 29.0 43.5 0.00 0.00 0.18 5 1005.5
20260905180907 17 315 29.0 38.6 0.00 0.00 0.18 5 1005.2
20260905180852 17 315 29.0 46.7 0.00 0.00 0.18 5 1005.2
20260905180337 17 315 27.4 37.0 0.00 0.00 0.18 5 1005.4
20260905175816 17 270 24.1 33.8 0.00 0.00 0.18 5 1005.7
20260905175301 17 292 24.1 33.8 0.00 0.00 0.18 5 1005.4
20260905174740 17 292 17.7 24.1 0.00 0.00 0.18 5 1005.4
20260905174724 17 270 24.1 33.8 0.00 0.00 0.18 5 1005.1
20260905174203 18 315 25.7 48.3 0.00 0.00 0.18 5 1004.6
20260905173648 18 315 20.9 35.4 0.00 0.00 0.18 5 1004.8
20260905173133 18 315 22.5 33.8 0.00 0.00 0.18 5 1004.9
20260905172612 18 292 17.7 24.1 0.00 0.00 0.18 5 1003.9
20260905172548 18 292 20.9 32.2 0.00 0.00 0.18 5 1004.0
20260905172033 18 292 24.1 35.4 0.00 0.00 0.18 4 1004.6
20260905171518 18 270 24.1 33.8 0.00 0.00 0.18 4 1003.7
20260905170957 18 292 24.1 30.6 0.00 0.00 0.18 4 1003.8
20260905170940 18 292 27.4 38.6 0.00 0.00 0.18 4 1004.0
20260905170419 18 315 30.6 46.7 0.00 0.00 0.18 4 1003.8
20260905165904 19 315 29.0 41.8 0.00 0.00 0.18 4 1003.2
20260905165349 19 315 27.4 41.8 0.00 0.00 0.18 4 1003.5
20260905164828 19 315 29.0 37.0 0.00 0.00 0.18 4 1003.8
20260905164812 19 315 27.4 43.5 0.00 0.00 0.18 4 1003.6
20260905164251 19 270 27.4 45.1 0.00 0.00 0.18 4 1003.8
20260905163736 20 315 25.7 38.6 0.00 0.00 0.18 4 1003.6
20260905163221 20 315 25.7 41.8 0.00 0.00 0.18 4 1004.4
20260905162700 20 315 29.0 40.2 0.00 0.00 0.18 4 1003.2
20260905162644 20 315 30.6 48.3 0.00 0.00 0.18 4 1003.5
20260905162123 20 315 33.8 49.9 0.00 0.00 0.18 4 1002.3
20260905161608 20 -1 32.2 51.5 0.00 0.00 0.18 4 1002.5
20260905161053 20 315 30.6 48.3 0.00 0.00 0.18 4 1003.2
20260905160532 20 337 25.7 38.6 0.00 0.00 0.18 4 1002.4
20260905160509 20 315 29.0 45.1 0.00 0.00 0.18 4 1002.5
20260905155953 20 315 29.0 46.7 0.00 0.00 0.18 4 1003.7
20260905155438 20 315 30.6 43.5 0.00 0.00 0.18 4 1003.1
20260905154917 20 315 27.4 37.0 0.00 0.00 0.18 4 1002.7
20260905154853 20 315 30.6 43.5 0.00 0.00 0.18 4 1002.4
20260905154338 20 -1 33.8 48.3 0.00 0.00 0.18 4 1002.2
20260905153823 20 315 33.8 49.9 0.00 0.00 0.18 4 1002.2
20260905153302 21 315 24.1 32.2 0.00 0.00 0.18 4 1003.2
20260905153244 21 270 30.6 46.7 0.00 0.00 0.18 4 1002.6
20260905152729 21 -1 30.6 46.7 0.00 0.00 0.18 4 1003.3
20260905152208 21 270 27.4 40.2 0.00 0.00 0.18 4 1004.3
20260905151646 20 315 27.4 35.4 0.00 0.00 0.18 4 1003.2
20260905151630 20 315 25.7 40.2 0.00 0.00 0.18 4 1003.5
20260905151115 20 315 29.0 45.1 0.00 0.00 0.18 4 1003.7
20260905150554 20 315 29.0 43.5 0.00 0.00 0.18 4 1002.3
20260905150039 20 315 25.7 37.0 0.00 0.00 0.18 4 1002.2
20260905145517 20 270 22.5 30.6 0.00 0.00 0.18 4 1003.5
20260905145502 20 270 25.7 38.6 0.00 0.00 0.18 4 1003.4
20260905144941 20 337 32.2 45.1 0.00 0.00 0.18 4 1002.3
20260905144426 20 315 25.7 40.2 0.00 0.00 0.18 4 1002.6
20260905143910 21 270 27.4 38.6 0.00 0.00 0.18 4 1003.2
20260905143350 20 315 30.6 40.2 0.00 0.00 0.18 4 1001.7
20260905143333 20 315 30.6 48.3 0.00 0.00 0.18 4 1001.9
20260905142812 21 315 29.0 40.2 0.00 0.00 0.18 4 1003.1
20260905142257 20 -1 32.2 48.3 0.00 0.00 0.18 4 1001.9
20260905141742 20 315 30.6 48.3 0.00 0.00 0.18 4 1001.9
20260905141221 21 270 24.1 33.8 0.00 0.00 0.18 4 1002.0
20260905141205 21 315 35.4 53.1 0.00 0.00 0.18 4 1002.0
20260905140644 21 -1 29.0 48.3 0.00 0.00 0.18 4 1002.2
20260905140129 21 270 27.4 43.5 0.00 0.00 0.18 4 1003.2
20260905135614 21 -1 30.6 41.8 0.00 0.00 0.18 4 1003.1
20260905135053 21 315 33.8 48.3 0.00 0.00 0.18 4 1004.1
20260905135037 21 -1 27.4 45.1 0.00 0.00 0.18 4 1003.4
20260905134516 21 -1 30.6 48.3 0.00 0.00 0.18 4 1002.5
20260905134001 21 -1 25.7 49.9 0.00 0.00 0.18 4 1003.8
20260905133446 21 270 25.7 38.6 0.00 0.00 0.18 4 1003.6
20260905132925 20 270 19.3 25.7 0.00 0.00 0.18 4 1002.8
20260905132909 20 -1 27.4 43.5 0.00 0.00 0.18 4 1002.8
20260905132348 21 315 24.1 38.6 0.00 0.00 0.18 5 1003.2
20260905131833 20 270 29.0 43.5 0.00 0.00 0.18 4 1003.0
20260905131318 21 270 27.4 46.7 0.00 0.00 0.18 4 1002.8
20260905130757 20 315 19.3 27.4 0.00 0.00 0.18 5 1001.1
20260905130734 20 315 27.4 41.8 0.00 0.00 0.18 4 1001.9
20260905130219 21 315 27.4 40.2 0.00 0.00 0.18 5 1002.7
20260905125704 21 315 27.4 46.7 0.00 0.00 0.18 4 1003.0
20260905125143 21 315 30.6 46.7 0.00 0.00 0.18 4 1003.0
20260905125118 21 270 27.4 45.1 0.00 0.00 0.18 4 1002.8
20260905124603 21 270 24.1 35.4 0.00 0.00 0.18 4 1003.4
20260905124048 20 315 27.4 40.2 0.00 0.00 0.18 4 1002.6
20260905123527 20 270 27.4 37.0 0.00 0.00 0.18 4 1001.1
20260905123503 20 315 27.4 46.7 0.00 0.00 0.18 4 1000.8
20260905122948 20 315 22.5 37.0 0.00 0.00 0.18 4 1003.6
20260905122433 19 270 24.1 33.8 0.00 0.00 0.18 5 1002.8
20260905121912 18 270 19.3 27.4 0.00 0.00 0.18 5 1002.3
20260905121855 19 315 22.5 40.2 0.00 0.00 0.18 5 1002.0
20260905121334 20 270 20.9 33.8 0.00 0.00 0.18 5 1003.3
20260905120819 18 -1 24.1 43.5 0.00 0.00 0.18 5 1002.0
20260905120304 19 -1 25.7 40.2 0.00 0.00 0.18 5 1004.1
20260905115743 19 270 24.1 30.6 0.00 0.00 0.18 5 1001.8
20260905115727 19 -1 24.1 37.0 0.00 0.00 0.18 5 1002.1
20260905115206 19 270 25.7 45.1 0.00 0.00 0.18 5 1003.5
20260905114651 19 270 27.4 41.8 0.00 0.00 0.18 5 1003.1
20260905114136 20 270 25.7 46.7 0.00 0.00 0.18 5 1003.8
20260905113615 20 315 20.9 32.2 0.00 0.00 0.18 5 1001.6
20260905113600 20 315 30.6 43.5 0.00 0.00 0.18 5 1002.0
20260905113045 19 270 30.6 49.9 0.00 0.00 0.18 5 1002.9
20260905112524 18 -1 30.6 48.3 0.00 0.00 0.18 5 1002.6
20260905112008 18 270 29.0 48.3 0.00 0.00 0.18 5 1001.8
20260905111448 19 270 20.9 27.4 0.00 0.00 0.18 5 1002.8
20260905111432 18 315 24.1 40.2 0.00 0.00 0.18 5 1002.4
20260905110911 19 270 29.0 53.1 0.00 0.00 0.18 5 1002.4
20260905110356 19 -1 30.6 49.9 0.00 0.00 0.18 5 1000.9
20260905105841 19 315 24.1 41.8 0.00 0.00 0.18 5 1003.0
20260905105320 18 270 22.5 32.2 0.00 0.00 0.18 5 1002.8
20260905105305 18 -1 25.7 51.5 0.00 0.00 0.18 5 1002.0
20260905104741 20 -1 27.4 46.7 0.00 0.00 0.18 5 1003.2
20260905104226 19 -1 29.0 45.1 0.00 0.00 0.18 5 1002.9
20260905103705 19 270 14.5 19.3 0.00 0.00 0.18 5 1003.7
20260905103648 19 -1 29.0 53.1 0.00 0.00 0.18 5 1002.8
20260905103127 19 225 19.3 33.8 0.00 0.00 0.18 5 1002.7
20260905102612 19 -1 24.1 41.8 0.00 0.00 0.18 5 1003.2
20260905102057 19 270 25.7 43.5 0.00 0.00 0.18 5 1003.8
20260905101536 19 -1 20.9 29.0 0.00 0.00 0.18 5 1002.8
20260905101513 19 -1 25.7 40.2 0.00 0.00 0.18 5 1003.4
20260905100958 18 -1 30.6 53.1 0.00 0.00 0.18 5 1001.6
20260905100442 18 270 22.5 40.2 0.00 0.00 0.18 5 1001.2
20260905095921 18 270 20.9 27.4 0.00 0.00 0.18 5 1001.2
20260905095905 18 292 29.0 40.2 0.00 0.00 0.18 5 1000.8
20260905095344 17 247 24.1 40.2 0.00 0.00 0.18 6 1002.4
20260905094829 17 -1 27.4 45.1 0.00 0.00 0.18 6 1001.4
20260905094314 17 270 24.1 40.2 0.00 0.00 0.18 6 1000.5
20260905093753 18 270 16.1 20.9 0.00 0.00 0.18 6 1002.3
20260905093737 18 270 25.7 38.6 0.00 0.00 0.18 6 1001.9
20260905093222 17 270 25.7 43.5 0.00 0.00 0.18 6 1002.8
20260905092701 17 270 17.7 32.2 0.00 0.00 0.18 6 1003.0
20260905092146 17 270 20.9 38.6 0.00 0.00 0.18 6 1003.0
20260905091625 17 270 14.5 19.3 0.00 0.00 0.18 6 1004.1
20260905091609 17 247 22.5 37.0 0.00 0.00 0.18 6 1003.9
20260905091048 16 315 22.5 30.6 0.00 0.00 0.18 6 1002.4
20260905090533 17 292 17.7 37.0 0.00 0.00 0.18 6 1002.9
20260905090018 17 247 22.5 41.8 0.00 0.00 0.18 6 1004.2
20260905085457 17 247 19.3 30.6 0.00 0.00 0.18 7 1005.3
20260905085433 17 292 24.1 37.0 0.00 0.00 0.18 7 1004.1
20260905084918 16 247 24.1 38.6 0.00 0.00 0.18 7 1003.9
20260905084403 16 225 25.7 37.0 0.00 0.00 0.18 7 1004.7
20260905083842 16 270 17.7 27.4 0.00 0.00 0.18 7 1005.2
20260905083818 16 247 22.5 41.8 0.00 0.00 0.18 7 1004.5
20260905083303 16 270 29.0 46.7 0.00 0.00 0.18 7 1004.7